1st Responders/1st Detectors/Storm Spotters Weather Summary for Clark County, KY

Forecast Maps


Reg. NEXRAD Animation


National Fire Danger: Day 1 & 2 Map

Current NWS Watch/Warnings

SPC Convective Day 1 Outlook


Day 2 Outlook

(Click images to enlarge|Page will refresh every 5 minutes)
UK Ag. Weather Center Desktop Severe Weather Service[HERE]
Clark County, KY Hazardous Weather Outlook Webcast
(9 AM to 9 PM Mon-Fri)
[Fast]
[Dial-up]


UKAWC 1st Detectors/1st Responders Precision Weather Forecast For CLARK County, Kentucky
(based on the NWS County Digital Forecast)

ISSUED AT 09:00 UTC ON TUESDAY JUN 18 2019
DAY TUESDAY
EDT 3HR 6A 7A 8A 9A 10A 11A NOON 1P 2P 3P 4P 5P 6P 7P
MAX/MIN -- -- 67° -- -- -- -- -- -- -- -- -- -- 76°
TEMP 67° 67° 68° 70° 70° 70° 72° 72° 72° 74° 76° 74° 74° 74°
SKY COVER 98% 99% 100% 100% 99% 98% 99% 99% 97% 94% 89% 81% 82% 77%
Clouds
DEW PT 67° 67° 67° 67° 67° 67° 67° 67° 67° 67° 68° 67° 67° 68°
RH 96% 96% 93% 93% 90% 87% 87% 84% 84% 79% 79% 79% 78% 83%
POP 12HR -- -- 80% -- -- -- -- -- -- -- -- -- -- --
RAIN/SNOW (liq.equ) -- -- 0.21in -- -- -- -- -- 0.18in -- -- -- -- --
SNOWFALL -- -- 0in -- -- -- -- -- 0in -- -- -- -- --
WIND SPEED(MPH) 5 5 5 6 6 6 7 7 7 7 7 6 6 6
WIND Gust(MPH) 10 10 13 15 14 14 15 15 15 15 15 15 15 15
WIND DIR SW SW SW SW SW S SW SW S SW SW SW SW SW
DEW -- -- -- -- -- -- -- -- -- -- Lgt Dew Lgt Dew Lgt Dew Lgt Dew
HeatIndex 67 67 68 70 70 70 72 72 72 74 76 74 74 74
Rain Showers Definite Definite Definite Likely Likely Likely Likely Likely Likely Likely Likely Likely Likely Likely
Thunder Storm Likely Likely Definite Likely Likely Likely Likely Likely Chance Chance Chance Chance Chance Chance
WIND CHILL -- -- -- -- -- -- -- -- -- -- -- -- -- --
SPRAY COND
DRY COND
LIVESTOCK HEATSTRESS 66.82 66.82 67.65 69.57 69.38 69.20 71.06 70.84 70.84 72.24 74.01 72.24 72.16 72.58



DAY WEDNESDAY THURSDAY FRIDAY SATURDAY SUNDAY MONDAY
EDT 6HR 8P 9P 10P 11P MIDN 1A 2A 3A 4A 5A 6A 7A 8A 9A 10A 11A NOON 1P 2P 3P 4P 5P 8P 11P 2A 5A 8A 11A 2P 5P 8P 2A 8A 2P 8P 2A 8A 2P 8P 2A 8A 2P 8P 2A 8A 2P 8P
MAX/MIN -- -- -- -- -- -- -- -- -- -- -- -- 67° -- -- -- -- -- -- -- -- 81° -- -- -- -- 67° -- -- 76° -- -- 61° 79° -- -- 65° 83° -- -- 68° 83° -- -- 67° 81° --
TEMP 72° 72° 70° 70° 70° 68° 67° 67° 67° 67° 67° 67° 68° 70° 72° 74° 76° 77° 79° 79° 79° 79° 76° 70° 70° 68° 68° 72° 74° 74° 72° 65° 65° 76° 76° 67° 68° 81° 77° 70° 72° 79° 76° 70° 70° 77° 74°
SKY COVER 78% 86% 81% 85% 81% 79% 79% 79% 78% 78% 78% 77% 77% 78% 79% 80% 76% 73% 69% 63% 56% 50% 67% 73% 85% 83% 88% 86% 74% 63% 56% 32% 37% 33% 38% 45% 68% 63% 64% 67% 66% 64% 71% 64% 62% 68% 76%
Clouds
DEW PT 67° 68° 67° 67° 67° 67° 67° 67° 67° 67° 67° 67° 67° 67° 68° 68° 68° 68° 68° 68° 68° 68° 67° 67° 67° 67° 67° 67° 67° 65° 63° 63° 63° 63° 65° 63° 65° 70° 68° 68° 68° 70° 68° 68° 67° 68° 67°
RH 84% 90% 90% 90% 93% 92% 96% 96% 96% 99% 97% 96% 93% 90% 87% 84% 79% 74% 71% 71% 68% 71% 73% 89% 93% 96% 93% 87% 79% 73% 76% 92% 93% 61% 71% 90% 89% 69% 74% 93% 90% 74% 78% 97% 90% 73% 79%
POP 12HR 80% -- -- -- -- -- -- -- -- -- -- -- 55% -- -- -- -- -- -- -- -- -- 57% -- -- -- 75% -- -- -- 79% -- 11% -- 9% -- 35% -- 43% -- 40% -- 47% -- 44% -- 46%
RAIN/SNOW (liq.equ) 0.16in -- -- -- -- -- 0.18in -- -- -- -- -- 0.03in -- -- -- -- -- 0.02in -- -- -- 0.07in -- 0.10in -- 0.35in -- 0.37in -- 0.23in -- -- -- -- -- -- -- -- -- -- -- -- -- -- -- --
SNOWFALL 0in -- -- -- -- -- 0in -- -- -- -- -- 0in -- -- -- -- -- 0in -- -- -- 0in -- 0in -- 0in -- 0in -- 0in -- -- -- -- -- -- -- -- -- -- -- -- -- -- -- --
WIND SPEED(MPH) 5 5 5 2 2 2 2 2 2 2 2 2 2 5 6 6 7 7 6 7 7 7 5 6 7 7 9 10 13 10 7 6 2 5 2 5 6 7 7 6 7 8 7 6 7 10 7
WIND DIR S S S S S S S S S S S S SW SW SW SW SW SW SW SW SW SW SW SW SW SW SW SW SW W W W NW W SW SW S SW SW SW SW W SW SW SW SW W
HeatIndex 72 72 70 70 70 68 67 67 67 67 67 67 68 70 72 74 76 77 79 79 82 79 76 70 70 68 68 72 74 74 72 65 65 76 76 67 68 84 77 70 72 79 76 70 70 77 74
Rain Showers Likely Likely Likely Chance Chance Chance Chance Chance Chance Chance Chance Chance Chance Chance Chance Chance Chance Chance Likely Likely Likely Likely Likely Likely Definite Definite Definite Definite Likely Likely Slight Chance -- -- -- Slight Chance Chance Chance Chance Chance Chance Chance Chance Chance Chance Chance Chance Chance
Thunder Storm Chance Chance Chance Chance Chance Chance -- -- -- -- -- -- Chance Chance Chance Chance Chance Chance Chance Chance Chance Chance Chance Chance Chance Chance Chance Chance Chance Chance -- -- -- -- Slight Chance Chance Chance Chance Chance Chance Chance Chance Chance Chance Chance Chance Chance
WIND CHILL -- -- -- -- -- -- -- -- -- -- -- -- -- -- -- -- -- -- -- -- -- -- -- -- -- -- -- -- -- -- -- -- -- -- -- -- -- -- -- -- -- -- -- -- -- -- --
SPRAY COND
DRY COND
LIVESTOCK HEATSTRESS 70.84 71.27 69.38 69.38 69.57 67.60 66.82 66.82 66.82 66.95 66.86 66.82 67.65 69.38 71.06 72.66 74.01 74.40 75.78 75.78 75.44 75.78 73.45 69.32 69.57 67.80 67.65 71.06 72.24 71.74 70.26 64.73 64.76 72.31 73.26 66.55 67.44 77.21 74.40 69.57 71.27 76.11 73.92 69.82 69.38 74.30 72.24

Click on individual weather variable above in left-hand column (ie., TEMP, RH, QPF 12HR) to view state forecast maps






NWS 48 Hr. Forecast Maps,

Regional Hourly Observations For CLARK County, Kentucky
Issued at 500 AM EDT TUE JUN 18 2019
NORTHEAST KENTUCKY
  
CITY           SKY/WX    TMP DP  RH WIND       PRES   REMARKS
LEXINGTON      MOCLDY    67  64  90 S6        29.97S                  
COVINGTON      LGT RAIN  68  66  93 S8        29.95S                  
FRANKFORT      CLOUDY    70  66  87 CALM      29.95S                  


Current NOWCAST not available:
Nowcasts are not issued routinely during fair weather. Only when
precipitation or other significant weather is occuring in this county will these
forecasts be issued. Currently, there is no short term forecast in effect.


Fire Weather Forecast For CLARK County, KY
Provided by the National Weather Service:

Issued at: Tue Jun 18 05:05:01 EDT 2019


                      Today        Tonight      Tue          

CLOUD COVER           PCldy        MCldy        MCldy        
PRECIP TYPE           Tstms        Tstms        Tstms        
CHANCE PRECIP (%)     70           70           70           
TEMP (24H TREND)      83 (-2)      68 (+1)      78           
RH % (24H TREND)      64 (0)       99 (0)       73           
20FTWND-VAL/AM(MPH)   SW  7                     Lgt/Var      
20FTWND-RDG/PM(MPH)   SW  7        Lgt/Var      SW  5        
PRECIP AMOUNT         0.22         0.39         0.44         
MIXING HGT(FT-AGL/MSL)4828                      4253         
TRANSPORT WND (MPH)   SW 15                     SW  9        
VENT RATE (KT-FT)     67018                     37915        
DISPERSION            Good                      Marginal     
DSI                   SLGT UNSTBL  SLGT UNSTBL  SLGT UNSTBL  
LAL                   4            4            5            
HAINES INDEX          3            3            3            
ADI EARLY             38 FAIR      9 POOR       16 GEN POOR  
ADI LATE              44 GEN GOOD  3 VERY POOR  24 FAIR      
MAX LVORI EARLY       5            7            6            
MAX LVORI LATE        3            7            4            

REMARKS...ADI IS ATMOSPHERIC DISPERSION INDEX BY LAVDAS.        
LVORI IS LOW VISIBILITY OCCURRENCE RISK INDEX.

.WEDNESDAY...Showers and thunderstorms likely. Lows in the mid
60s. Highs in the lower 80s. Light winds. 
.THURSDAY...Showers and thunderstorms. Lows in the upper 60s.
Highs in the upper 70s. Southwest winds around 5 mph. 
.FRIDAY...Partly cloudy. Lows in the lower 60s. Highs in the
lower 80s. Southwest winds up to 10 mph. 
.SATURDAY...Mostly cloudy with a 40 percent chance of showers and
thunderstorms. Lows in the mid 60s. Highs in the lower 80s. West
winds up to 10 mph. 
.SUNDAY...Mostly cloudy. A 50 percent chance of showers and
thunderstorms. Lows in the upper 60s. Highs in the lower 80s.
West winds 5 to 10 mph. 

SPC's Fire Weather Web Tool (Excellent!), SPC's Fire Weather Outlooks, NWS Fire Weather WEB, Fire Danger Class Map,
Keetch-Byram Drought Index, ROMAN Web, Haines Index ,
WFAS's 10-hr Dead Fuel Moist., WFAS's 100-hr Dead Fuel Moist., Probablity of Ignition, Visual blackness Map, Palmer Drought Index, HPC's Rainfall Forecast Maps


Hazardous Weather Outlook For CLARK County, Kentucky
341 AM EDT Tue Jun 18 2019 /241 AM CDT Tue Jun 18 2019/

   FLASH FLOOD WATCH IN EFFECT UNTIL 2 PM EDT /1 PM CDT/ THIS
AFTERNOON  

This hazardous weather outlook is for portions of south central
Indiana and Central Kentucky.

 DAY ONE  Today and Tonight.

Scattered thunderstorms will produce locally heavy rainfall. 
Flash flooding is possible if heavy rain falls in the same locations
where heavy rain occurred on Monday. 

 DAYS TWO THROUGH SEVEN  Wednesday through Monday.

Additional thunderstorms are expected Wednesday evening into 
Thursday as a low pressure system moves over the Ohio Valley. Strong 
thunderstorms will be possible with gusty winds, torrential rainfall,
and lightning. Flash flooding could occur with any repeated rounds 
of heavy rain over the same areas. 

 SPOTTER INFORMATION STATEMENT  

Spotters are encouraged to report flooding to the National Weather 
Service.

Latest CLARK County, Kentucky Watches, Warnings and Advisories.
Additional Drought Info.: UKAWC Drought Page, Kentucky Drought Watch


7-Day Forecast For CLARK County, KY


FLASH FLOOD WATCH IN EFFECT UNTIL 2 PM EDT THIS AFTERNOON

TODAY
Showers with thunderstorms likely. Some thunderstorms may produce heavy rainfall. Highs in the upper 70s. Southwest winds up to 10 mph. Chance of precipitation 80 percent.

TONIGHT
Showers likely and chance of thunderstorms. Lows in the mid 60s. South winds up to 5 mph. Chance of precipitation 60 percent.

WEDNESDAY
Showers likely and chance of thunderstorms. Highs in the lower 80s. Southwest winds up to 10 mph. Chance of precipitation 60 percent.

WEDNESDAY NIGHT
Showers and chance of thunderstorms. Lows in the upper 60s. Southwest winds up to 10 mph with gusts to around 25 mph. Chance of precipitation 80 percent.

THURSDAY
Showers and chance of thunderstorms. Highs in the upper 70s. Southwest winds 5 to 15 mph with gusts to around 30 mph. Chance of precipitation 80 percent.

THURSDAY NIGHT
Partly cloudy with a 20 percent chance of showers. Lows in the lower 60s.

FRIDAY
Partly cloudy. Highs in the lower 80s.

FRIDAY NIGHT
Partly cloudy with a 40 percent chance of showers and thunderstorms. Lows in the mid 60s.

SATURDAY
Partly cloudy with a 40 percent chance of showers and thunderstorms. Highs in the mid 80s.

SATURDAY NIGHT
Partly cloudy with a 50 percent chance of showers and thunderstorms. Lows in the upper 60s.

SUNDAY
Showers likely and chance of thunderstorms. Highs in the mid 80s. Chance of precipitation 60 percent.

SUNDAY NIGHT
Partly cloudy with a 50 percent chance of showers and thunderstorms. Lows in the upper 60s.

MONDAY
Partly cloudy with a 50 percent chance of showers and thunderstorms. Highs in the lower 80s.

Ag Weather Center, Department of Biosystems & Agricultural Engineering, University of Kentucky